< < Back
Terminal Aerodrome Forecast


Current Version              Previous Versions:   1  2  3  4  5  6  7  8  9  

Terminal Aerodrome Forecast

709
FTUS44 KMOB 270527
TAFPNS
TAF
KPNS 270527Z 2706/2806 29006KT P6SM FEW009 SCT020 BKN029
     FM270800 33011G18KT P6SM SCT007 BKN015
     FM271800 33015G21KT P6SM SCT030=

Latest METAR

010
SAUS70 KWBC 271300 RRD
MTRPNS
METAR KPNS 271253Z 32014G19KT 10SM OVC011 12/09 A2990 RMK AO2 SLP128
T01170094


USA.gov is the U.S. government's official web portal to all federal, state and local government web resources and services.